Погода в Кяхте

Погода в Кяхте : погода сейчас, прогноз погоды и архив. Всё, что Вы хотите узнать о погоде в Кяхте!

Поиск расширенной информации на нашем сайте:

Другие новости

Новости СМИ2

Главная страница сайта

Новости сайта

02.10.2013

Напоминаем, что на нашем новом сайте вы можете получить высокодетализированные прогнозы погоды по пунктам России, СНГ и мира (включающие важные для авиации метеовеличины, такие как направление и скорость ветра, видимость, явления погоды, количество и форма облачности, нижняя и верхняя граница облачности), а также ознакомиться с разнообразными материалами по авиационной метеорологии и подборкой полезных ссылок на эту тему.

Сайт Метеоцентр.Азия посвящён разработке технологий оптимизации авиаметеорологического обслуживания, включая проектирование и перспективное создание нескольких автоматизированных авиаметеорологических систем:
- система выпуска высокодетальных прогностических карт явлений погоды для нижнего воздушного пространства по России и ближнему зарубежью;
- система верификации прогнозов TAF (выпускаемых синоптиками официальных АМСГ РФ и ближнего зарубежья) и AUTOTAF (выпускаемых сайтом Метеоцентр.Азия) - выявление ошибок, онлайн-сопоставление с фактической погодой METAR, автоматическое внесение коррективов в прогнозы при резком отклонении фактической погоды от прогноза, подсчёт оправдываемости прогнозов по элементам и в целом;
- система обработки, анализа и отображения авиаметеорологической информации для применения провайдерами метеорологической информации.

Рекомендуем: Популярные фирмы - стеклобанка. В паллетах

Погода в Кяхте - сегодня

Время (UTC), дата Ветер
(°,м/с) 
Видим.   Явления Облачность Т
(°С)
Тd
(°С)
f(%) Тe
(°С)
Pmin
(гПа)
dP
(гПа)
Po
(мм)
O2
(г/м3)
Тmin Tmax R s Состояние
почвы
03 22.05.17 320 (СЗ) 6-10{10}  20000 м    10/3 1000 м средняя, верхняя 
[Cu hum|Ac lent|Ci fib]
+14.2 +2.2 44 +13  1019.1  2.1  696  266           
06 22.05.17 050 (СВ) 20000 м    8/4 2000 м средняя, верхняя 
[Ac lent|Ci fib]
+16 +3.4 43 +16  1018.5  696  264           
09 22.05.17 180 (Ю) 20000 м    6/0 верхняя 
[Ci fib]
+18.5 +1.1 31 +19  1015.5  -2  694  262           
12 22.05.17 тихо ()   20000 м    8/0 верхняя 
[Ci fib]
+15.9 +0 34 +16  1015.6  -0.7  694  264    +20.7       
15 22.05.17 тихо ()   н/о    10/0 верхняя 
[Cs]
+8.7 -1.1 50 +9  1018.4  0.3  694  271           
18 22.05.17 230 (ЮЗ) //  н/о    4/0 верхняя 
[Ci fib]
+9.1 -0.2 52 +9  1017.7  -0.5  694  270           
21 22.05.17 тихо ()   20000 м    10/0 верхняя 
[Ci fib]
+6.3 -1.8 56 +6  1018.7  694  273           
00 23.05.17 тихо ()   20000 м    10/0 верхняя 
[Ci fib]
+12.7 +2.1 48 +13  1016.5  694  267  +5.8        сухая 
03 23.05.17 180 (Ю) 20000 м    3/0 верхняя 
[Ci fib]
+20.6 +2.1 29 +21  1013.7  -0.2  694  259           
06 23.05.17 180 (Ю) 20000 м    10/6 1000 м средняя, верхняя 
[Cu hum|Ac cuf|Ci]
+21.7 +1.4 26 +22  1011.2  -1.9  692  258           
09 23.05.17 тихо ()   20000 м    9/4 1000 м средняя 
[Cu hum|Ac lent]
+22.7 +1.5 25 +23  1009.4  -1.4  691  257           
12 23.05.17 тихо ()   20000 м    8/8 2000 м средняя 
[Ac lent]
+21.1 +0.9 26 +21  1009.7  -0.1  691  258    +25       
15 23.05.17 270 (З) //  н/о    6/3 2000 м средняя, верхняя 
[Ac trans|Ci fib]
+17 +0.2 32 +17  1012.5  1.2  692  262           
18 23.05.17 тихо ()   н/о    ясно 
+11 -0.4 45 +11  1014.5  692  268           
21 23.05.17 тихо ()   20000 м    3/3 2000 м средняя 
[Ac lent]
+9 -0.7 51 +9  1015.1  692  270           
00 24.05.17 тихо ()   20000 м    8/0 верхняя 
[Ci fib]
+15.2 +2.5 42 +15  1013.4  0.4  692  264  +8.9        сухая 
03 24.05.17 180 (Ю) 20000 м    10/0 верхняя 
[Cs]
+22.3 +7.3 38 +22  1010.2  -0.8  692  256           
06 24.05.17 210 (ЮЗ) 20000 м    10/0 верхняя 
[Cs]
+27.5 +7.1 27 +28  1006.3  -2.1  690  251           
09 24.05.17 180 (Ю) 20000 м    6/0 верхняя 
[Ci fib]
+28.7 +5.6 23 +29  1004.7  -1.2  689  250           
12 24.05.17 тихо ()   20000 м    8/0 верхняя 
[Ci fib]
+26.2 +5.1 26 +26  1004.5  -0.8  689  252    +29.6       
15 24.05.17 тихо ()   н/о    6/0 верхняя 
[Ci fib]
+16.3 +1.2 36 +16  1008.8  689  262           
18 24.05.17 тихо ()   н/о    3/0 верхняя 
[Ci fib]
+16.3 +0 33 +16  1008.3  -0.5  689  262           
21 24.05.17 тихо ()   20000 м    8/0 верхняя 
[Ci fib]
+13.1 +1.1 44 +13  1009  -0.2  689  265           
00 25.05.17 150 (ЮВ) 20000 м    6/0 верхняя 
[Ci fib]
+21.6 +0.7 25 +22  1006.4  689  257  +13        сухая 
03 25.05.17 180 (Ю) 20000 м    1/0 верхняя 
[Cs]
+26.9 -0.2 17 +27  1003.9  -0.8  688  252           
Время (UTC), дата Ветер
(°,м/с) 
Видим.   Явления Облачность Т
(°С)
Тd
(°С)
f(%) Тe
(°С)
Pmin
(гПа)
dP
(гПа)
Po
(мм)
O2
(г/м3)
Тmin Tmax R s Состояние
почвы

Для получения пояснительной информации подведите курсор к названию столбца.

ПОГОДА в Кяхте - архив

Всё, что Вы хотите узнать о погоде в Кяхте - удобно и подробно!

Выберите нужную дату (начиная с 1 января 2015* года) и нажмите кнопку "Найти".
Будут отображены архивные сводки погоды по пункту Кяхта, начиная с указанной даты.


Отображать данные в формате CSV (для использования в таблицах Excel)


Внимание! Наш архив погоды предназначен исключительно для личного некоммерческого использования в познавательных целях. Если Вам необходимы официальные справки о состоянии погоды (для производственных, юридических, коммерческих и т.п. целей), обращайтесь в органы Росгидромета.

*Примечание: данная дата относится к архиву по метеостанциям СССР (Россия, СНГ, Балтия).
Архив по метеостанциям Зарубежной Европы и Азии (кроме Китая) хранится 10 дней, по другим регионам земного шара (Китай, Африка, Америка, Австралия, Океания) - 1 день.

Кяхта - район местоположения метеостанции


Название, широта, долгота, высота метеостанции:
Кяхта 50.4°ш. 106.4°д. 797 м над ур. моря [Российская Федерация]

Дополнительная информация

В oтличие oт бoльшинства пoгoдных сайтoв мы публикуем пoдрoбную метеoинфoрмацию в детальнoм прoфессиoнальнoм фoрмате.

Характеристики температуры и влажнoсти вoздуха измеряются на высoте 2 м в тени вдали oт зданий и деревьев.
Скoрoсть ветра измеряется на высoте 10 м (на урoвне рoста челoвека скoрoсть ветра ниже в 1.5-2 раза). Если метеoстанция нахoдится в гoрoде или в лесу, тo скoрoсть ветра занижена на 2-4 м/с пo сравнению с oткрытым местoм. Скoрoсть ветра над акватoриями крупных рек и oзёр, а также на вершинах хoлмoв на 2-5 м/с выше, чем в oбычных услoвиях.
Атмoсфернoе давление в разных тoчках местнoсти мoжет значительнo oтличаться oт давления на метеoстанции, в зависимoсти oт услoвий рельефа (при пoдъёме на 10 м давление пoнижается примернo на 1 мм рт.ст.).